This demonstration page uses our WeatherBlox Daily Observations layout. Learn more.

Left ArrowRight Arrow

39.01783, -85.05884

Hourly Observations for February 3, 2019

Temp ( °F °C ) Dew Point ( °F °C ) Humidity (%) Winds ( mph kmh ) Pressure ( in mb ) Visibility ( mi km ) Precip ( " mm )
12:52 am 00:52 Mostly Cloudy 40 4.4 36 2.2 86 86 S 7 11 30.08 1019 10 16 0.00 0.00
1:52 am 01:52 Mostly Cloudy 41 5 36 2.2 82 82 S 7 11 30.06 1018 10 16 0.00 0.00
2:52 am 02:52 Cloudy 40 4.4 34 1.1 79 79 SSW 7 11 30.06 1018 10 16 0.00 0.00
3:52 am 03:52 Mostly Cloudy 39 3.9 33 0.6 79 79 S 5 7 30.04 1017 10 16 0.00 0.00
4:52 am 04:52 Cloudy 40 4.4 33 0.6 77 77 SSW 7 11 30.04 1017 10 16 0.00 0.00
5:52 am 05:52 Mostly Cloudy 39 3.9 33 0.6 79 79 S 3 6 30.06 1018 10 16 0.00 0.00
6:52 am 06:52 Cloudy 42 5.6 33 0.6 71 71 SSW 6 9 30.06 1018 10 16 0.00 0.00
7:52 am 07:52 Cloudy 38 3.3 34 1.1 86 86 SSW 6 9 30.07 1018 10 16 0.00 0.00
8:52 am 08:52 Cloudy 43 6.1 35 1.7 74 74 S 3 6 30.07 1018 10 16 0.00 0.00
9:52 am 09:52 Cloudy 47 8.3 35 1.7 63 63 S 9 15 30.06 1018 10 16 0.00 0.00
10:52 am 10:52 Mostly Cloudy 53 11.7 37 2.8 55 55 SSW 10 17 30.06 1018 10 16 0.00 0.00
11:52 am 11:52 Partly Cloudy 57 13.9 39 3.9 51 51 S 9 15 30.05 1018 10 16 0.00 0.00
12:52 pm 12:52 Sunny 60 15.6 40 4.4 47 47 S 10 17 30.01 1016 10 16 0.00 0.00
1:52 pm 13:52 Sunny 63 17.2 42 5.6 47 47 SW 14 22 29.98 1015 10 16 0.00 0.00
2:52 pm 14:52 Mostly Sunny 64 17.8 43 6.1 46 46 S 13 20 29.96 1015 10 16 0.00 0.00
3:52 pm 15:52 Mostly Sunny 65 18.3 42 5.6 43 43 SW 10 17 29.96 1014 10 16 0.00 0.00
4:52 pm 16:52 Mostly Sunny 63 17.2 42 5.6 47 47 SSW 10 17 29.95 1014 10 16 0.00 0.00
5:52 pm 17:52 Partly Cloudy 58 14.4 41 5 53 53 S 7 11 29.96 1015 10 16 0.00 0.00
6:52 pm 18:52 Partly Cloudy 55 12.8 40 4.4 57 57 S 6 9 29.96 1015 10 16 0.00 0.00
7:52 pm 19:52 Mostly Clear 53 11.7 40 4.4 61 61 S 7 11 29.96 1015 10 16 0.00 0.00
8:52 pm 20:52 Clear 51 10.6 40 4.4 66 66 S 6 9 29.96 1015 10 16 0.00 0.00
9:52 pm 21:52 Clear 45 7.2 38 3.3 77 77 S 6 9 29.97 1015 10 16 0.00 0.00
10:52 pm 22:52 Clear 48 8.9 39 3.9 71 71 S 7 11 29.96 1015 10 16 0.00 0.00
11:52 pm 23:52 Clear 50 10 40 4.4 68 68 S 9 15 29.95 1014 10 16 0.00 0.00

Powered by AerisWeather